Location: Dompnac
(44.5644°N, 4.1026°E)
Time: 04:47:18
(UTC+00:00)

NOSS 2-2 (E) - Pass Details

Date: 23 January 2021
Orbit: 462 x 1744 km, 63.3° (Epoch: 05 March)

Event Time Altitude Azimuth Distance (km) Brightness Sun altitude
Rises 17:52:54 0° 329° (NNW) 2,908 7.2 -12.9°
Reaches altitude 10° 17:56:21 10° 359° (N) 2,221 6.3 -13.5°
Maximum altitude 17:58:39 13° 26° (NNE) 2,181 6.0 -13.9°
Enters shadow 17:59:42 12° 38° (NE) 2,292 6.0 -14.1°
